Regional Weather Roundup
Issued by NWS Bismarck, ND

Home | Current Version | Previous Version | Text Only | Print | Product List | Glossary On
Versions: 1 2 3 4 5 6 7 8 9 10 11 12 13 14 15 16 17 18 19 20 21 22 23 24 25 26 27 28 29 30 31 32 33 34 35 36 37 38 39 40 41 42 43 44 45 46 47 48 49 50
000
ASUS43 KBIS 290402
RWRBIS

NWR BROADCAST TEXT
NATIONAL WEATHER SERVICE BISMARCK ND
1100 PM CDT THU JUL 28 2016

NOTE: "FAIR" INDICATES FEW OR NO CLOUDS BELOW 12,000 FEET WITH NO
SIGNIFICANT WEATHER AND/OR OBSTRUCTIONS TO VISIBILITY.


CITY           SKY/WX    TMP DP  RH WIND       PRES   REMARKS
WILLISTON      CLOUDY    64  53  67 CALM      30.13S
MINOT          PTCLDY    63  55  75 CALM      30.13R
MINOT AFB      NOT AVBL
BISMARCK       CLOUDY    69  55  60 N9        30.12R
DICKINSON      CLOUDY    60  57  89 NE3       30.14R
GARRISON         N/A     62  57  83 N3        30.13R
HETTINGER ARPT CLOUDY    61  56  83 CALM      30.16S
JAMESTOWN      MOCLDY    64  61  90 NE5       30.11R
CARRINGTON     FAIR      63  59  88 NE3       30.15R
HAZEN          FAIR      57  57 100 CALM      30.15S
OAKES            N/A    N/A N/A N/A MISG        N/A
STANLEY        FAIR      59  59 100 E5        30.17S
$$

CITY           SKY/WX    TMP DP  RH WIND       PRES   REMARKS
GRAND FORKS    CLEAR     58  55  90 NW6       30.10R
GRAND FORKS AF NOT AVBL
DEVILS LAKE    CLEAR     61  57  87 NE6       30.14R
FARGO          CLEAR     64  59  83 N7        30.08S
GRAFTON        FAIR      63  59  88 NW5       30.12S
GWINNER        FAIR      66  63  88 N6        30.10R
LANGDON        FAIR      57  57 100 CALM      30.14S
ROLLA          FAIR      55  55 100 W3        30.16R
$$

CITY           SKY/WX    TMP DP  RH WIND       PRES   REMARKS
ABERDEEN       CLEAR     65  60  84 CALM      30.08R
MOBRIDGE       CLOUDY    68  56  65 N8        30.08R
BUFFALO          N/A     63  61  93 E5        30.10R
RAPID CITY     MOCLDY    61  56  83 E7        30.16R
GLASGOW        CLEAR     66  57  72 E6        30.10S
SIDNEY         CLEAR     63  55  75 CALM      30.13R
WOLF POINT     CLEAR     65  56  72 NE5       30.11S
GLENDIVE       PTCLDY    66  57  72 E8        30.14R
MILES CITY     CLEAR     71  55  56 NE8       30.11R
BAKER          CLEAR     62  60  93 E8        30.16R
$$

CITY           SKY/WX    TMP DP  RH WIND       PRES   REMARKS
BILLINGS       CLEAR     72  50  45 E5        30.14R
GREAT FALLS    CLEAR     72  46  39 E8        30.08R
$$




USA.gov is the U.S. government's official web portal to all federal, state and local government web resources and services.